User: anonymous   Login
Location: *
(51.4660°N, 0.3360°W)
Time: 12:06:04
(UTC+00:00)
Language:

Cosmos 2297 Rocket - Orbit

View from above orbital plane
View from above orbital plane
View from above satellite
View from above satellite

Ground track
Ground track

The orbit data is extracted from the following two-line orbital elements,

1 23405U 94077B   19316.78656611 +.00000048 +00000-0 +49444-4 0  9992
2 23405 070.9812 168.1266 0000946 017.0342 343.0812 14.15211629289562
Epoch (UTC): 12 November 2019 18:52:39
Eccentricity: 0.0000946
inclination: 70.9812°
perigee height: 841 km
apogee height: 842 km
right ascension of ascending node: 168.1266°
argument of perigee: 17.0342°
revolutions per day: 14.15211629
mean anomaly at epoch: 343.0812°
orbit number at epoch: 28956

The dashed part of the orbit path shows where the satellite is in the earth's shadow,  

DLR